When you browse on this site, cookies collect data to enhance your experience and personalize the content and advertising you see.
Visit our Privacy Policy to learn more. By continuing to use the site, you agree to this use of cookies and data.
  • In Hungary
  • List of Countries
  • For 7 days
  • Water Temperature
  • Weather Map
  • News
  • Weather Widgets
  • user-avatar
    Login

    Hourly Weather Tatarener

    Today, 16 September, Monday

    Time Temperature Precipitation Wind Pressure Humidity
    00:00 +4°C° 0 mm 3 mps 742 mmHg 86%
    01:00 +4°C° 0 mm 3 mps 742 mmHg 87%
    02:00 +4°C° 0 mm 3 mps 741 mmHg 88%
    03:00 +4°C° 0 mm 3 mps 741 mmHg 92%
    04:00 +5°C° 0 mm 4 mps 741 mmHg 91%
    05:00 +5°C° 0 mm 4 mps 740 mmHg 89%
    06:00 +5°C° 0 mm 5 mps 739 mmHg 88%
    07:00 +5°C° 0 mm 6 mps 739 mmHg 82%
    08:00 +6°C° 0 mm 7 mps 738 mmHg 76%
    09:00 +7°C° 0 mm 8 mps 737 mmHg 70%
    10:00 +7°C° 0.1 mm 8 mps 736 mmHg 76%
    11:00 +8°C° 0.1 mm 7 mps 736 mmHg 81%
    12:00 +8°C° 0.1 mm 7 mps 735 mmHg 87%
    13:00 +8°C° 0.4 mm 7 mps 735 mmHg 88%
    14:00 +8°C° 0.4 mm 6 mps 734 mmHg 90%
    15:00 +8°C° 0.4 mm 6 mps 733 mmHg 92%
    16:00 +8°C° 1.2 mm 6 mps 733 mmHg 93%
    17:00 +9°C° 1.2 mm 6 mps 733 mmHg 93%
    18:00 +9°C° 1.2 mm 5 mps 732 mmHg 94%
    19:00 +8°C° 0.1 mm 5 mps 732 mmHg 94%
    20:00 +8°C° 0.1 mm 5 mps 732 mmHg 94%
    21:00 +7°C° 0.1 mm 5 mps 732 mmHg 95%
    22:00 +7°C° 0 mm 5 mps 732 mmHg 95%
    23:00 +7°C° 0 mm 5 mps 732 mmHg 95%

    Tomorrow, 17 September, Tuesday

    Time Temperature Precipitation Wind Pressure Humidity
    00:00 +7°C° 0 mm 5 mps 732 mmHg 95%
    01:00 +7°C° 0 mm 5 mps 732 mmHg 95%
    02:00 +7°C° 0 mm 5 mps 732 mmHg 95%
    03:00 +7°C° 0 mm 5 mps 733 mmHg 95%
    04:00 +7°C° 0 mm 5 mps 733 mmHg 95%
    05:00 +7°C° 0 mm 6 mps 733 mmHg 94%
    06:00 +7°C° 0 mm 6 mps 733 mmHg 94%
    07:00 +7°C° 0 mm 6 mps 733 mmHg 93%
    08:00 +7°C° 0 mm 6 mps 733 mmHg 92%
    09:00 +8°C° 0 mm 6 mps 733 mmHg 91%
    10:00 +8°C° 0.4 mm 6 mps 733 mmHg 90%
    11:00 +8°C° 0.4 mm 6 mps 733 mmHg 90%
    12:00 +8°C° 0.4 mm 6 mps 733 mmHg 90%
    13:00 +9°C° 0.3 mm 7 mps 733 mmHg 87%
    14:00 +9°C° 0.3 mm 7 mps 733 mmHg 84%
    15:00 +9°C° 0.3 mm 8 mps 733 mmHg 81%
    16:00 +9°C° 0.1 mm 7 mps 733 mmHg 83%
    17:00 +8°C° 0.1 mm 6 mps 733 mmHg 84%
    18:00 +8°C° 0.1 mm 5 mps 733 mmHg 86%
    19:00 +7°C° 0 mm 5 mps 733 mmHg 88%
    20:00 +7°C° 0 mm 5 mps 733 mmHg 89%
    21:00 +7°C° 0 mm 5 mps 733 mmHg 90%
    22:00 +6°C° 0 mm 5 mps 733 mmHg 91%
    23:00 +6°C° 0 mm 5 mps 733 mmHg 93%

    Day after tomorrow, 18 September, Wednesday

    Time Temperature Precipitation Wind Pressure Humidity
    00:00 +5°C° 0 mm 5 mps 733 mmHg 94%
    01:00 +5°C° 0 mm 5 mps 734 mmHg 95%
    02:00 +5°C° 0 mm 5 mps 734 mmHg 95%
    03:00 +3°C° 0 mm 5 mps 734 mmHg 96%
    04:00 +5°C° 0 mm 5 mps 734 mmHg 96%
    05:00 +5°C° 0 mm 5 mps 734 mmHg 95%
    06:00 +5°C° 0 mm 5 mps 735 mmHg 95%
    07:00 +5°C° 0 mm 5 mps 735 mmHg 93%
    08:00 +6°C° 0 mm 5 mps 735 mmHg 91%
    09:00 +6°C° 0 mm 5 mps 735 mmHg 90%
    10:00 +7°C° 0 mm 5 mps 735 mmHg 84%
    11:00 +9°C° 0 mm 5 mps 735 mmHg 78%
    12:00 +10°C° 0 mm 5 mps 735 mmHg 72%
    13:00 +10°C° 0.4 mm 5 mps 735 mmHg 73%
    14:00 +11°C° 0.4 mm 4 mps 735 mmHg 73%
    15:00 +11°C° 0.4 mm 4 mps 735 mmHg 74%
    16:00 +10°C° 0.5 mm 3 mps 735 mmHg 79%
    17:00 +9°C° 0.5 mm 3 mps 735 mmHg 83%
    18:00 +8°C° 0.5 mm 2 mps 735 mmHg 88%
    19:00 +7°C° 0 mm 2 mps 735 mmHg 90%
    20:00 +6°C° 0 mm 2 mps 735 mmHg 92%
    21:00 +6°C° 0 mm 2 mps 734 mmHg 93%
    22:00 +5°C° 0 mm 2 mps 734 mmHg 94%
    23:00 +6°C° 0 mm 1 mps 734 mmHg 94%

    19 September, Thursday

    Time Temperature Precipitation Wind Pressure Humidity
    00:00 +5°C° 0 mm 1 mps 734 mmHg 95%
    01:00 +5°C° 0 mm 1 mps 734 mmHg 95%
    02:00 +5°C° 0 mm 1 mps 733 mmHg 95%
    03:00 +5°C° 0 mm 1 mps 733 mmHg 95%
    04:00 +4°C° 0 mm 2 mps 733 mmHg 96%
    05:00 +4°C° 0 mm 2 mps 733 mmHg 96%
    06:00 +3°C° 0 mm 3 mps 733 mmHg 96%
    07:00 +4°C° 0 mm 3 mps 733 mmHg 93%
    08:00 +5°C° 0 mm 4 mps 733 mmHg 89%
    09:00 +7°C° 0 mm 4 mps 733 mmHg 85%
    10:00 +7°C° 0.1 mm 5 mps 734 mmHg 83%
    11:00 +8°C° 0.1 mm 5 mps 734 mmHg 81%
    12:00 +8°C° 0.1 mm 5 mps 734 mmHg 80%
    13:00 +8°C° 0.3 mm 5 mps 735 mmHg 79%
    14:00 +8°C° 0.3 mm 5 mps 736 mmHg 78%
    15:00 +8°C° 0.3 mm 6 mps 736 mmHg 78%
    16:00 +7°C° 0.1 mm 5 mps 737 mmHg 81%
    17:00 +6°C° 0.1 mm 4 mps 738 mmHg 85%
    18:00 +5°C° 0.1 mm 3 mps 738 mmHg 89%
    19:00 +4°C° 0 mm 3 mps 739 mmHg 91%
    20:00 +4°C° 0 mm 3 mps 740 mmHg 92%
    21:00 +3°C° 0 mm 3 mps 740 mmHg 93%
    22:00 +3°C° 0 mm 3 mps 741 mmHg 93%
    23:00 +3°C° 0 mm 3 mps 741 mmHg 92%

    20 September, Friday

    Time Temperature Precipitation Wind Pressure Humidity
    00:00 +4°C° 0 mm 2 mps 742 mmHg 92%
    01:00 +3°C° 0 mm 2 mps 742 mmHg 92%
    02:00 +3°C° 0 mm 2 mps 742 mmHg 93%
    03:00 +3°C° 0 mm 2 mps 742 mmHg 93%
    04:00 +3°C° 0 mm 2 mps 743 mmHg 93%
    05:00 +3°C° 0 mm 2 mps 743 mmHg 92%
    06:00 +3°C° 0 mm 2 mps 743 mmHg 92%
    07:00 +4°C° 0 mm 2 mps 743 mmHg 86%
    08:00 +5°C° 0 mm 2 mps 743 mmHg 80%
    09:00 +5°C° 0 mm 3 mps 744 mmHg 75%
    10:00 +7°C° 0.1 mm 2 mps 744 mmHg 69%
    11:00 +7°C° 0.1 mm 2 mps 744 mmHg 64%
    12:00 +8°C° 0.1 mm 2 mps 744 mmHg 58%
    13:00 +8°C° 0.1 mm 2 mps 744 mmHg 58%
    14:00 +8°C° 0.1 mm 2 mps 744 mmHg 57%
    15:00 +8°C° 0.1 mm 3 mps 744 mmHg 57%
    16:00 +7°C° 0 mm 2 mps 744 mmHg 62%
    17:00 +6°C° 0 mm 2 mps 744 mmHg 68%
    18:00 +5°C° 0 mm 2 mps 744 mmHg 74%
    19:00 +4°C° 0 mm 2 mps 744 mmHg 77%
    20:00 +4°C° 0 mm 2 mps 745 mmHg 81%
    21:00 +3°C° 0 mm 2 mps 745 mmHg 84%
    22:00 +3°C° 0 mm 2 mps 745 mmHg 86%
    23:00 +2°C° 0 mm 2 mps 745 mmHg 88%

    21 September, Saturday

    Time Temperature Precipitation Wind Pressure Humidity
    00:00 +2°C° 0 mm 2 mps 745 mmHg 91%
    01:00 +1°C° 0 mm 2 mps 745 mmHg 91%
    02:00 +1°C° 0 mm 2 mps 745 mmHg 91%
    03:00 +1°C° 0 mm 2 mps 745 mmHg 92%
    04:00 -1°C° 0 mm 2 mps 745 mmHg 92%
    05:00 -1°C° 0 mm 2 mps 745 mmHg 92%
    06:00 -1°C° 0 mm 2 mps 746 mmHg 93%
    07:00 +2°C° 0 mm 2 mps 746 mmHg 85%
    08:00 +3°C° 0 mm 2 mps 746 mmHg 77%
    09:00 +5°C° 0 mm 2 mps 746 mmHg 69%
    10:00 +6°C° 0 mm 2 mps 746 mmHg 64%
    11:00 +7°C° 0 mm 3 mps 746 mmHg 59%
    12:00 +8°C° 0 mm 3 mps 746 mmHg 54%
    13:00 +8°C° 0 mm 3 mps 746 mmHg 53%
    14:00 +7°C° 0 mm 4 mps 746 mmHg 52%
    15:00 +7°C° 0 mm 4 mps 746 mmHg 51%
    16:00 +5°C° 0 mm 4 mps 746 mmHg 61%
    17:00 +4°C° 0 mm 3 mps 746 mmHg 70%
    18:00 +3°C° 0 mm 3 mps 746 mmHg 79%
    19:00 +2°C° 0 mm 3 mps 746 mmHg 83%
    20:00 +1°C° 0 mm 3 mps 746 mmHg 86%
    21:00 0°C° 0 mm 3 mps 747 mmHg 90%
    22:00 0°C° 0 mm 3 mps 746 mmHg 90%
    23:00 -1°C° 0 mm 3 mps 746 mmHg 91%
    Show more